Regional Weather Roundup
Issued by NWS

Home | Current Version | Previous Version | Graphics & Text | Print | Product List | Glossary On
Versions: 1 2 3 4 5 6 7 8 9 10 11 12 13 14 15 16 17 18 19 20 21 22 23 24 25 26 27 28 29 30 31 32 33 34 35 36 37 38 39 40 41 42 43 44 45 46 47 48 49 50
000
ASUS43 KLSX 291107
RWRMO

WEATHER SUMMARY FOR MISSOURI
NATIONAL WEATHER SERVICE SPRINGFIELD MO
600 AM CDT TUE JUL 29 2014

NOTE: "FAIR" INDICATES FEW OR NO CLOUDS BELOW 12,000 FEET WITH NO
       SIGNIFICANT WEATHER AND/OR OBSTRUCTIONS TO VISIBILITY.
       CURRENT SKY AND/OR WEATHER CONDITIONS ARE NOT AVAILABLE FOR
       CHILLICOTHE AND FARMINGTON.

MOZ001>031-035>038-043-044-053-054-291200-
...NORTHERN AND WESTERN MISSOURI...

CITY           SKY/WX    TMP DP  RH WIND       PRES   REMARKS
KANSAS CTY INT CLEAR     60  57  89 NW6       30.17R
KANSAS C DTWN  CLEAR     63  59  87 CALM      30.16R
LEE`S SUMMIT   CLEAR     59  57  93 CALM      30.17S
ST JOSEPH      CLEAR     54  53  97 CALM      30.18R
CHILLICOTHE      N/A     57  55  93 CALM      30.17S
KIRKSVILLE     FOG       54  52  93 CALM      30.16S VSB 3/4

$$
MOZ066>068-077>081-088>096-101>105-291200-
...SOUTHWEST MISSOURI...

CITY           SKY/WX    TMP DP  RH WIND       PRES   REMARKS
SPRINGFIELD    CLEAR     59  54  83 CALM      30.17R
JOPLIN         CLEAR     58  57  97 CALM      30.17S

$$
MOZ032>034-039>042-045>050-055>058-069>072-291200-
...CENTRAL MISSOURI...

CITY           SKY/WX    TMP DP  RH WIND       PRES   REMARKS
COLUMBIA       CLEAR     57  54  89 NW3       30.16S
JEFFERSON CITY PTCLDY    58  55  90 CALM      30.16S
ROLLA          CLEAR     54  50  86 CALM      30.15R
SEDALIA        CLEAR     59  55  87 CALM      30.16S
WHITEMAN AFB   CLEAR     56  48  74 CALM      30.16R
OSAGE BEACH    PTCLDY    55  52  88 CALM      30.16S

$$
MOZ051-052-059>065-291200-
...EAST CENTRAL MISSOURI...

CITY           SKY/WX    TMP DP  RH WIND       PRES   REMARKS
ST LOUIS INTL  CLEAR     60  54  80 W3        30.14S
SPIRIT OF STL  CLEAR     54  52  93 CALM      30.13S
ST CHARLES     FOG       51  51 100 S3        30.13S VSB 1/2

$$
MOZ072>076-082>087-097>100-106>115-291200-
...SOUTH CENTRAL AND SOUTHEAST MISSOURI...

CITY           SKY/WX    TMP DP  RH WIND       PRES   REMARKS
CAPE GIRARDEAU CLEAR     56  54  93 W3        30.12S
FARMINGTON     CLEAR     54  52  94 CALM      30.17R
POPLAR BLUFF   CLEAR     59  54  83 NW5       30.12R
WEST PLAINS    CLEAR     56  53  90 CALM      30.17S

$$



USA.gov is the U.S. government's official web portal to all federal, state and local government web resources and services.